Time,TemperatureF,DewpointF,PressureIn,WindDirection,WindDirectionDegrees,WindSpeedMPH,WindSpeedGustMPH,Humidity,HourlyPrecipIn,Conditions,Clouds,dailyrainin,SoftwareType,DateUTC
2013-08-27 00:18:00,73.0,66.0,30.09,WSW,247,0.0,0.0,79,0.00,,,0.00,,2013-08-27 04:18:00,
2013-08-27 00:54:00,73.0,66.0,30.09,SW,225,0.0,0.0,80,0.00,,,0.00,,2013-08-27 04:54:00,
2013-08-27 01:23:00,73.0,66.0,30.08,WSW,247,0.0,0.0,80,0.00,,,0.00,,2013-08-27 05:23:00,
2013-08-27 01:52:00,73.0,66.0,30.08,WSW,247,0.0,0.0,80,0.00,,,0.00,,2013-08-27 05:52:00,
2013-08-27 02:22:00,73.0,67.0,30.07,WSW,247,0.0,0.0,81,0.00,,,0.00,,2013-08-27 06:22:00,
2013-08-27 02:32:00,73.0,67.0,30.07,WSW,247,0.0,0.0,81,0.00,,,0.00,,2013-08-27 06:32:00,
2013-08-27 02:52:00,73.0,67.0,30.06,WSW,247,0.0,0.0,81,0.00,,,0.00,,2013-08-27 06:52:00,
2013-08-27 03:22:00,72.0,66.0,30.05,WSW,247,0.0,0.0,82,0.00,,,0.00,,2013-08-27 07:22:00,
2013-08-27 03:52:00,73.0,67.0,30.06,SW,225,0.0,0.0,82,0.00,,,0.00,,2013-08-27 07:52:00,
2013-08-27 04:22:00,73.0,67.0,30.05,WSW,247,0.0,0.0,82,0.00,,,0.00,,2013-08-27 08:22:00,
2013-08-27 04:52:00,72.0,67.0,30.04,WSW,247,0.0,0.0,83,0.00,,,0.00,,2013-08-27 08:52:00,
2013-08-27 05:21:00,72.0,67.0,30.04,WSW,247,0.0,0.0,84,0.00,,,0.00,,2013-08-27 09:21:00,
2013-08-27 05:54:00,72.0,67.0,30.04,WSW,247,0.0,0.0,84,0.00,,,0.00,,2013-08-27 09:54:00,
2013-08-27 06:25:00,72.0,67.0,30.03,WSW,247,0.0,0.0,84,0.00,,,0.00,,2013-08-27 10:25:00,
2013-08-27 06:53:00,71.0,66.0,30.04,WSW,247,0.0,0.0,84,0.00,,,0.00,,2013-08-27 10:53:00,
2013-08-27 07:22:00,71.0,66.0,30.04,WSW,247,0.0,0.0,85,0.00,,,0.00,,2013-08-27 11:22:00,
2013-08-27 07:52:00,71.0,66.0,30.05,WSW,247,0.0,0.0,85,0.00,,,0.00,,2013-08-27 11:52:00,
2013-08-27 08:21:00,71.0,66.0,30.05,WSW,247,0.0,0.0,85,0.00,,,0.00,,2013-08-27 12:21:00,
2013-08-27 08:52:00,71.0,66.0,30.06,WSW,247,0.0,0.0,85,0.00,,,0.00,,2013-08-27 12:52:00,
2013-08-27 09:22:00,72.0,68.0,30.06,WSW,247,0.0,0.0,86,0.00,,,0.00,,2013-08-27 13:22:00,
2013-08-27 09:52:00,72.0,68.0,30.06,North,-999,-999.0,-999.0,86,0.00,,,0.00,,2013-08-27 13:52:00,
2013-08-27 10:22:00,74.0,70.0,30.06,North,-999,-999.0,-999.0,86,0.00,,,0.00,,2013-08-27 14:22:00,
2013-08-27 10:32:00,74.0,70.0,30.06,North,-999,-999.0,-999.0,86,0.00,,,0.00,,2013-08-27 14:32:00,
2013-08-27 10:53:00,75.0,70.0,30.04,North,-999,-999.0,-999.0,85,0.00,,,0.00,,2013-08-27 14:53:00,
2013-08-27 11:11:00,75.0,70.0,30.04,North,-999,-999.0,-999.0,85,0.00,,,0.00,,2013-08-27 15:11:00,
2013-08-27 11:22:00,75.0,70.0,30.04,North,-999,-999.0,-999.0,85,0.00,,,0.00,,2013-08-27 15:22:00,
2013-08-27 11:58:00,77.0,72.0,30.05,WNW,292,0.0,0.0,84,0.00,,,0.00,,2013-08-27 15:58:00,
2013-08-27 12:28:00,77.0,71.0,30.04,West,270,0.0,0.0,82,0.00,,,0.00,,2013-08-27 16:28:00,
2013-08-27 12:55:00,78.0,70.0,30.05,NW,315,0.0,0.0,77,0.00,,,0.00,,2013-08-27 16:55:00,
2013-08-27 13:23:00,78.0,69.0,30.04,NW,315,0.0,0.0,74,0.00,,,0.00,,2013-08-27 17:23:00,
2013-08-27 15:52:00,82.0,71.0,30.00,WNW,292,0.0,0.0,70,0.00,,,0.00,,2013-08-27 19:52:00,